COSMOS 1275 DEB, 42097

Orbit data source: Space-Track

COSMOS 1275 DEB, 42097 is space debris in LEO originally from a launch on Thu, 04 Jun 1981 UTC launched from the Plesetsk Missile And Space Complex (PKMTR). Debris objects in space refer to the collection of defunct objects orbiting the Earth. Examples of debris include non-operational satellites, rocket bodies, and fragments generated from explosions, collisions, or faulty payload assembly.

Loading next visibility...
Identifier
42097, 1981-053PH
Orbit
LEO
Country
Flag of CISCIS
Related business
Manufacturer
Unknown
Mission
Spacecraft
Bus & Motor
Unknown
Mass
Unknown
Launch date (UTC)
1981-06-04 (44 years ago)
Launch vehicle
Unknown
Launch site
Plesetsk Missile And Space Complex (PKMTR)
Object type
Payload
Rocket body
Debris
Shape & HBR
Unknown shape, 0.1 m
Radar Cross Section
Small (<0.1 m²)

Expand to show TLE details & history
Last TLE update: 1 week ago

TLE from 1 week ago
0 COSMOS 1275 DEB
1 42097U 81053PH  25280.07231977  .00006896  00000-0  29142-2 0  9991
2 42097  82.8079 206.2659 0059687  14.5155 345.7725 14.24484851154750
Epoch: 2025-10-07T01:44Z
TLE epoch observation values (Epoch: 2025-10-07T01:44:08.428Z)
Latitude
0.00003°
Longitude
164.26432°
Altitude
771.608 km
Speed
7.49 km/s
True Right ascension
13h 45m 03s
True Declination
0° 00' 00"
Sunlit
Object was in daylight at epoch
Visualization orbit readout
Latitude
Unknown
Longitude
Unknown
Altitude
Unknown
Speed
Unknown
Apparent Right ascension
Unknown
Apparent Declination
Unknown
Sunlit
N/A
Visualization observer readout
Local Sidereal Time
23:48:25
Azimuth
Unknown
Elevation
Unknown
Doppler factor
Unknown
Orbital elements
Apogee altitude
850.199 km
Perigee altitude
764.423 km
Semi-major axis
7,185.448 km
Eccentricity
0.00597
Inclination
82.8079°
RAAN
206.2659°
Arg. of periapsis
14.5155°
True anomaly
345.60318°
Mean anomaly
345.7725°
Eccentric anomaly
345.68796°
Mean motion
3.56338 °/min
Orbital period
101.03 mins
BSTAR
0.0029142
Loading maneuver chart data...
Computing Atmospheric mass density...
Loading historical data...
Loading historical data...
Loading historical data...
Loading historical data...
Loading historical data...
Loading historical data...
Loading historical data...

Documentation

Showing up to 5 results
|